| time (UTC) | temp C | wind direction | speed KPH | gust KPH | rain 1hr cm | rain 24hr cm | rain mn cm | humidity % | barometer mb |
| 20260504081810 | 8 | 205 | 0.0 | 3.2 | 0.00 | 0.00 | 0.00 | 81 | 1015.8 |
| 20260504081604 | 8 | 205 | 0.0 | 3.2 | 0.00 | 0.00 | 0.00 | 81 | 1015.9 |
| 20260504081537 | 8 | 0 | 0.0 | 3.2 | 0.00 | 0.00 | 0.00 | 80 | 1013.5 |
| 20260504081320 | 8 | 205 | 1.6 | 3.2 | 0.00 | 0.00 | 0.00 | 81 | 1015.8 |
| 20260504080831 | 8 | 173 | 1.6 | 3.2 | 0.00 | 0.00 | 0.00 | 81 | 1015.8 |
| 20260504080319 | 8 | 172 | 0.0 | 3.2 | 0.00 | 0.00 | 0.00 | 80 | 1015.9 |
| 20260504070318 | 9 | 197 | 0.0 | 3.2 | 0.00 | 0.00 | 0.00 | 77 | 1016.2 |
| 20260504050328 | 8 | 179 | 3.2 | 6.4 | 0.00 | 0.00 | 0.00 | 74 | 1017.1 |
| 20260504045810 | 8 | 191 | 1.6 | 3.2 | 0.00 | 0.00 | 0.00 | 74 | 1017.0 |
| 20260504045317 | 8 | 193 | 0.0 | 0.0 | 0.00 | 0.00 | 0.00 | 74 | 1017.0 |
| 20260504044856 | 8 | 193 | 0.0 | 0.0 | 0.00 | 0.00 | 0.00 | 74 | 1016.9 |
| 20260504044553 | 8 | 193 | 0.0 | 0.0 | 0.00 | 0.00 | 0.00 | 74 | 1017.1 |
| 20260504044539 | 8 | 0 | 0.0 | 0.0 | 0.00 | 0.00 | 0.00 | 74 | 1014.6 |
| 20260504044317 | 8 | 205 | 0.0 | 0.0 | 0.00 | 0.00 | 0.00 | 74 | 1016.9 |
| 20260504043849 | 8 | 212 | 0.0 | 0.0 | 0.00 | 0.00 | 0.00 | 74 | 1016.8 |
| 20260504043338 | 8 | 215 | 0.0 | 0.0 | 0.00 | 0.00 | 0.00 | 74 | 1016.9 |
| 20260504043115 | 8 | 215 | 0.0 | 0.0 | 0.00 | 0.00 | 0.00 | 74 | 1017.0 |
| 20260504043036 | 8 | 0 | 0.0 | 0.0 | 0.00 | 0.00 | 0.00 | 73 | 1014.5 |
| 20260504042826 | 8 | 215 | 0.0 | 0.0 | 0.00 | 0.00 | 0.00 | 74 | 1016.7 |
| 20260504042314 | 8 | 207 | 0.0 | 0.0 | 0.00 | 0.00 | 0.00 | 74 | 1016.8 |
| 20260504041825 | 8 | 207 | 0.0 | 0.0 | 0.00 | 0.00 | 0.00 | 73 | 1016.6 |
| 20260504041539 | 8 | 0 | 0.0 | 0.0 | 0.00 | 0.00 | 0.00 | 73 | 1014.5 |
| 20260504041537 | 8 | 207 | 0.0 | 0.0 | 0.00 | 0.00 | 0.00 | 73 | 1017.0 |
| 20260504041333 | 8 | 223 | 0.0 | 0.0 | 0.00 | 0.00 | 0.00 | 73 | 1016.7 |
| 20260504040816 | 8 | 223 | 0.0 | 0.0 | 0.00 | 0.00 | 0.00 | 73 | 1016.6 |
| 20260504040326 | 8 | 223 | 0.0 | 0.0 | 0.00 | 0.00 | 0.00 | 73 | 1016.7 |
| 20260504040100 | 8 | 0 | 0.0 | 3.2 | 0.00 | 0.00 | 0.00 | 72 | 1014.5 |
| 20260504040024 | 8 | 223 | 0.0 | 0.0 | 0.00 | 0.00 | 0.00 | 73 | 1017.0 |
| 20260504035836 | 8 | 223 | 0.0 | 3.2 | 0.00 | 0.00 | 0.00 | 73 | 1016.8 |
| 20260504035317 | 8 | 223 | 0.0 | 3.2 | 0.00 | 0.00 | 0.00 | 72 | 1016.8 |
| 20260504034855 | 8 | 223 | 1.6 | 3.2 | 0.00 | 0.00 | 0.00 | 72 | 1016.8 |
| 20260504034550 | 8 | 223 | 1.6 | 3.2 | 0.00 | 0.00 | 0.00 | 72 | 1017.2 |
| 20260504034538 | 8 | 223 | 1.6 | 3.2 | 0.00 | 0.00 | 0.00 | 71 | 1014.7 |
| 20260504034316 | 8 | 223 | 1.6 | 3.2 | 0.00 | 0.00 | 0.00 | 71 | 1016.9 |
| 20260504033827 | 8 | 223 | 1.6 | 3.2 | 0.00 | 0.00 | 0.00 | 70 | 1017.0 |
| 20260504033317 | 8 | 223 | 1.6 | 3.2 | 0.00 | 0.00 | 0.00 | 69 | 1016.9 |
| 20260504033037 | 8 | 0 | 1.6 | 3.2 | 0.00 | 0.00 | 0.00 | 68 | 1014.7 |
| 20260504033033 | 8 | 223 | 1.6 | 3.2 | 0.00 | 0.00 | 0.00 | 69 | 1017.3 |
| 20260504032828 | 8 | 223 | 1.6 | 3.2 | 0.00 | 0.00 | 0.00 | 68 | 1016.8 |
| 20260504032310 | 8 | 223 | 1.6 | 3.2 | 0.00 | 0.00 | 0.00 | 68 | 1016.9 |
| 20260504031817 | 9 | 223 | 0.0 | 1.6 | 0.00 | 0.00 | 0.00 | 67 | 1016.8 |
| 20260504031537 | 8 | 0 | 0.0 | 3.2 | 0.00 | 0.00 | 0.00 | 66 | 1014.7 |
| 20260504031517 | 8 | 223 | 0.0 | 1.6 | 0.00 | 0.00 | 0.00 | 67 | 1017.1 |
| 20260504031327 | 9 | 223 | 0.0 | 3.2 | 0.00 | 0.00 | 0.00 | 67 | 1016.8 |
| 20260504030815 | 9 | 223 | 1.6 | 3.2 | 0.00 | 0.00 | 0.00 | 66 | 1016.8 |
| 20260504030321 | 9 | 223 | 0.0 | 3.2 | 0.00 | 0.00 | 0.00 | 65 | 1016.7 |
| 20260504030055 | 9 | 223 | 0.0 | 3.2 | 0.00 | 0.00 | 0.00 | 65 | 1017.2 |
| 20260504030038 | 9 | 0 | 0.0 | 3.2 | 0.00 | 0.00 | 0.00 | 65 | 1014.6 |
| 20260504025825 | 10 | 223 | 1.6 | 3.2 | 0.00 | 0.00 | 0.00 | 65 | 1016.8 |
| 20260504025334 | 10 | 223 | 0.0 | 1.6 | 0.00 | 0.00 | 0.00 | 65 | 1016.8 |
| 20260504024850 | 10 | 223 | 0.0 | 3.2 | 0.00 | 0.00 | 0.00 | 64 | 1016.8 |
| 20260504024539 | 10 | 223 | 0.0 | 3.2 | 0.00 | 0.00 | 0.00 | 64 | 1017.1 |
| 20260504024534 | 10 | 0 | 0.0 | 3.2 | 0.00 | 0.00 | 0.00 | 63 | 1014.5 |
| 20260504024311 | 10 | 223 | 0.0 | 3.2 | 0.00 | 0.00 | 0.00 | 63 | 1016.8 |
| 20260504023819 | 10 | 223 | 1.6 | 3.2 | 0.00 | 0.00 | 0.00 | 62 | 1016.7 |
| 20260504023310 | 10 | 223 | 0.0 | 0.0 | 0.00 | 0.00 | 0.00 | 60 | 1016.6 |
| 20260504023039 | 10 | 0 | 0.0 | 0.0 | 0.00 | 0.00 | 0.00 | 58 | 1014.5 |
| 20260504023012 | 10 | 223 | 0.0 | 0.0 | 0.00 | 0.00 | 0.00 | 58 | 1016.9 |
| 20260504022817 | 10 | 223 | 0.0 | 0.0 | 0.00 | 0.00 | 0.00 | 57 | 1016.6 |
| 20260504022321 | 10 | 223 | 0.0 | 0.0 | 0.00 | 0.00 | 0.00 | 57 | 1016.5 |
| 20260504021835 | 11 | 223 | 0.0 | 3.2 | 0.00 | 0.00 | 0.00 | 57 | 1016.5 |
| 20260504021545 | 10 | 223 | 0.0 | 3.2 | 0.00 | 0.00 | 0.00 | 57 | 1016.8 |
| 20260504021539 | 10 | 0 | 0.0 | 3.2 | 0.00 | 0.00 | 0.00 | 57 | 1014.3 |
| 20260504021318 | 11 | 223 | 0.0 | 3.2 | 0.00 | 0.00 | 0.00 | 57 | 1016.4 |
| 20260504020834 | 11 | 223 | 1.6 | 4.8 | 0.00 | 0.00 | 0.00 | 57 | 1016.4 |
| 20260504020317 | 11 | 223 | 1.6 | 4.8 | 0.00 | 0.00 | 0.00 | 56 | 1016.4 |
| 20260504020107 | 11 | 197 | 1.6 | 4.8 | 0.00 | 0.00 | 0.00 | 58 | 1016.8 |
| 20260504020037 | 11 | 197 | 1.6 | 4.8 | 0.00 | 0.00 | 0.00 | 57 | 1014.2 |
| 20260504015826 | 11 | 238 | 3.2 | 4.8 | 0.00 | 0.00 | 0.00 | 58 | 1016.4 |
| 20260504015314 | 11 | 238 | 3.2 | 4.8 | 0.00 | 0.00 | 0.00 | 56 | 1016.4 |
| 20260504014824 | 11 | 260 | 0.0 | 4.8 | 0.00 | 0.00 | 0.00 | 54 | 1016.4 |
| 20260504014542 | 11 | 260 | 1.6 | 9.7 | 0.00 | 0.00 | 0.00 | 55 | 1014.3 |
| 20260504014537 | 11 | 260 | 1.6 | 8.0 | 0.00 | 0.00 | 0.00 | 55 | 1016.7 |
| 20260504014335 | 12 | 202 | 3.2 | 8.0 | 0.00 | 0.00 | 0.00 | 55 | 1016.4 |
| 20260504013816 | 12 | 194 | 1.6 | 6.4 | 0.00 | 0.00 | 0.00 | 55 | 1016.3 |
| 20260504013347 | 12 | 305 | 3.2 | 6.4 | 0.00 | 0.00 | 0.00 | 55 | 1016.3 |
| 20260504013034 | 11 | 198 | 0.0 | 22.5 | 0.00 | 0.00 | 0.00 | 52 | 1014.4 |
| 20260504013006 | 11 | 198 | 0.0 | 19.3 | 0.00 | 0.00 | 0.00 | 51 | 1016.8 |
| 20260504012815 | 11 | 306 | 0.0 | 19.3 | 0.00 | 0.00 | 0.00 | 53 | 1016.6 |
| 20260504012326 | 11 | 350 | 6.4 | 19.3 | 0.00 | 0.00 | 0.00 | 52 | 1016.7 |
| 20260504011828 | 11 | 212 | 3.2 | 4.8 | 0.00 | 0.00 | 0.00 | 58 | 1016.9 |
| 20260504011557 | 11 | 197 | 1.6 | 4.8 | 0.00 | 0.00 | 0.00 | 57 | 1017.2 |
| 20260504011541 | 11 | 197 | 1.6 | 4.8 | 0.00 | 0.00 | 0.00 | 56 | 1014.6 |
| 20260504011316 | 12 | 316 | 1.6 | 3.2 | 0.00 | 0.00 | 0.00 | 57 | 1016.8 |
| 20260504010827 | 12 | 208 | 0.0 | 0.0 | 0.00 | 0.00 | 0.00 | 56 | 1016.8 |
| 20260504010309 | 12 | 208 | 0.0 | 0.0 | 0.00 | 0.00 | 0.00 | 55 | 1016.6 |
| 20260504010055 | 12 | 208 | 0.0 | 0.0 | 0.00 | 0.00 | 0.00 | 56 | 1016.9 |
| 20260504010037 | 12 | 0 | 0.0 | 0.0 | 0.00 | 0.00 | 0.00 | 55 | 1014.5 |
| 20260504005818 | 12 | 208 | 0.0 | 0.0 | 0.00 | 0.00 | 0.00 | 55 | 1016.6 |
| 20260504005355 | 12 | 208 | 0.0 | 0.0 | 0.00 | 0.00 | 0.00 | 54 | 1016.6 |
| 20260504004816 | 12 | 208 | 0.0 | 0.0 | 0.00 | 0.00 | 0.00 | 52 | 1016.4 |
| 20260504004544 | 12 | 0 | 0.0 | 0.0 | 0.00 | 0.00 | 0.00 | 53 | 1014.3 |
| 20260504004509 | 12 | 208 | 0.0 | 0.0 | 0.00 | 0.00 | 0.00 | 54 | 1016.9 |
| 20260504004325 | 12 | 208 | 0.0 | 0.0 | 0.00 | 0.00 | 0.00 | 54 | 1016.5 |
| 20260504003837 | 12 | 208 | 0.0 | 0.0 | 0.00 | 0.00 | 0.00 | 52 | 1016.6 |
| 20260504003326 | 12 | 208 | 0.0 | 0.0 | 0.00 | 0.00 | 0.00 | 53 | 1016.6 |
| 20260504003037 | 12 | 208 | 0.0 | 0.0 | 0.00 | 0.00 | 0.00 | 51 | 1016.9 |
| 20260504002810 | 13 | 208 | 0.0 | 0.0 | 0.00 | 0.00 | 0.00 | 52 | 1016.6 |
| 20260504002321 | 13 | 208 | 0.0 | 0.0 | 0.00 | 0.00 | 0.00 | 53 | 1016.5 |
| 20260504001831 | 13 | 208 | 0.0 | 0.0 | 0.00 | 0.00 | 0.00 | 51 | 1016.5 |
| 20260504001601 | 13 | 208 | 0.0 | 0.0 | 0.00 | 0.00 | 0.00 | 51 | 1016.9 |
| 20260504001537 | 13 | 0 | 0.0 | 0.0 | 0.00 | 0.00 | 0.00 | 50 | 1014.3 |
| 20260504001319 | 13 | 208 | 0.0 | 0.0 | 0.00 | 0.00 | 0.00 | 51 | 1016.5 |
| 20260504000809 | 14 | 208 | 0.0 | 1.6 | 0.00 | 0.00 | 0.00 | 51 | 1016.6 |
| 20260504000318 | 15 | 208 | 0.0 | 3.2 | 0.00 | 0.00 | 0.00 | 48 | 1016.4 |
| 20260504000042 | 14 | 208 | 0.0 | 3.2 | 0.00 | 0.00 | 0.00 | 49 | 1016.8 |
| 20260504000036 | 14 | 0 | 0.0 | 3.2 | 0.00 | 0.00 | 0.00 | 49 | 1014.2 |
| 20260503235821 | 15 | 208 | 1.6 | 3.2 | 0.00 | 0.00 | 0.00 | 49 | 1016.4 |
| 20260503235331 | 15 | 208 | 0.0 | 3.2 | 0.00 | 0.00 | 0.00 | 41 | 1016.3 |
| 20260503234821 | 15 | 208 | 0.0 | 0.0 | 0.00 | 0.00 | 0.00 | 42 | 1016.3 |
| 20260503234540 | 15 | 0 | 0.0 | 3.2 | 0.00 | 0.00 | 0.00 | 40 | 1014.1 |
| 20260503234504 | 15 | 208 | 0.0 | 0.0 | 0.00 | 0.00 | 0.00 | 41 | 1016.7 |
| 20260503234314 | 15 | 208 | 0.0 | 3.2 | 0.00 | 0.00 | 0.00 | 41 | 1016.4 |
| 20260503233823 | 15 | 208 | 0.0 | 6.4 | 0.00 | 0.00 | 0.00 | 38 | 1016.5 |
| 20260503233334 | 15 | 244 | 1.6 | 6.4 | 0.00 | 0.00 | 0.00 | 40 | 1016.6 |
| 20260503233040 | 15 | 0 | 0.0 | 4.8 | 0.00 | 0.00 | 0.00 | 39 | 1014.4 |
| 20260503233022 | 15 | 184 | 0.0 | 4.8 | 0.00 | 0.00 | 0.00 | 40 | 1017.0 |
| 20260503232824 | 15 | 184 | 0.0 | 4.8 | 0.00 | 0.00 | 0.00 | 39 | 1016.6 |
| 20260503232331 | 16 | 184 | 1.6 | 4.8 | 0.00 | 0.00 | 0.00 | 39 | 1016.6 |
| 20260503231815 | 16 | 223 | 0.0 | 3.2 | 0.00 | 0.00 | 0.00 | 37 | 1016.7 |
| 20260503231602 | 15 | 223 | 0.0 | 3.2 | 0.00 | 0.00 | 0.00 | 37 | 1017.2 |
| 20260503231539 | 15 | 0 | 0.0 | 4.8 | 0.00 | 0.00 | 0.00 | 36 | 1014.6 |
| 20260503231322 | 16 | 223 | 0.0 | 4.8 | 0.00 | 0.00 | 0.00 | 37 | 1017.0 |
| 20260503230814 | 16 | 213 | 1.6 | 4.8 | 0.00 | 0.00 | 0.00 | 37 | 1017.0 |
| 20260503230317 | 16 | 195 | 1.6 | 4.8 | 0.00 | 0.00 | 0.00 | 37 | 1017.0 |
| 20260503230058 | 15 | 239 | 1.6 | 4.8 | 0.00 | 0.00 | 0.00 | 35 | 1017.3 |
| 20260503230037 | 15 | 0 | 1.6 | 8.0 | 0.00 | 0.00 | 0.00 | 34 | 1014.7 |
| 20260503225822 | 16 | 254 | 1.6 | 8.0 | 0.00 | 0.00 | 0.00 | 36 | 1017.0 |
| 20260503225311 | 16 | 132 | 1.6 | 8.0 | 0.00 | 0.00 | 0.00 | 36 | 1017.0 |
| 20260503224820 | 16 | 184 | 1.6 | 9.7 | 0.00 | 0.00 | 0.00 | 35 | 1017.1 |
| 20260503224535 | 16 | 11 | 3.2 | 9.7 | 0.00 | 0.00 | 0.00 | 38 | 1014.8 |
| 20260503224526 | 16 | 5 | 3.2 | 9.7 | 0.00 | 0.00 | 0.00 | 38 | 1017.5 |
| 20260503224330 | 16 | 131 | 3.2 | 9.7 | 0.00 | 0.00 | 0.00 | 36 | 1017.1 |
| 20260503223811 | 16 | 145 | 0.0 | 8.0 | 0.00 | 0.00 | 0.00 | 35 | 1017.1 |
| 20260503223349 | 16 | 194 | 4.8 | 8.0 | 0.00 | 0.00 | 0.00 | 35 | 1017.1 |
| 20260503223100 | 16 | 165 | 0.0 | 9.7 | 0.00 | 0.00 | 0.00 | 35 | 1017.5 |
| 20260503223036 | 16 | 165 | 0.0 | 9.7 | 0.00 | 0.00 | 0.00 | 35 | 1014.9 |
| 20260503222809 | 16 | 148 | 1.6 | 9.7 | 0.00 | 0.00 | 0.00 | 35 | 1017.1 |
| 20260503222320 | 16 | 168 | 1.6 | 9.7 | 0.00 | 0.00 | 0.00 | 35 | 1017.1 |
| 20260503221830 | 16 | 216 | 1.6 | 8.0 | 0.00 | 0.00 | 0.00 | 35 | 1017.2 |
| 20260503221542 | 16 | 270 | 1.6 | 8.0 | 0.00 | 0.00 | 0.00 | 34 | 1014.9 |
| 20260503221535 | 16 | 302 | 1.6 | 8.0 | 0.00 | 0.00 | 0.00 | 34 | 1017.6 |
| 20260503221339 | 16 | 165 | 0.0 | 8.0 | 0.00 | 0.00 | 0.00 | 36 | 1017.1 |
| 20260503220830 | 16 | 189 | 3.2 | 8.0 | 0.00 | 0.00 | 0.00 | 35 | 1017.1 |
| 20260503220338 | 16 | 280 | 3.2 | 14.5 | 0.00 | 0.00 | 0.00 | 33 | 1017.2 |
| 20260503220039 | 16 | 140 | 4.8 | 14.5 | 0.00 | 0.00 | 0.00 | 33 | 1015.0 |
| 20260503220035 | 16 | 140 | 3.2 | 14.5 | 0.00 | 0.00 | 0.00 | 33 | 1017.6 |
| 20260503215845 | 16 | 204 | 6.4 | 14.5 | 0.00 | 0.00 | 0.00 | 33 | 1017.2 |
| 20260503215335 | 16 | 337 | 3.2 | 9.7 | 0.00 | 0.00 | 0.00 | 33 | 1017.0 |
| 20260503214845 | 16 | 167 | 3.2 | 9.7 | 0.00 | 0.00 | 0.00 | 35 | 1017.2 |
| 20260503214545 | 16 | 321 | 3.2 | 14.5 | 0.00 | 0.00 | 0.00 | 34 | 1017.6 |
| 20260503214537 | 16 | 304 | 3.2 | 14.5 | 0.00 | 0.00 | 0.00 | 33 | 1015.0 |
| 20260503214334 | 16 | 187 | 3.2 | 14.5 | 0.00 | 0.00 | 0.00 | 35 | 1017.2 |
| 20260503213818 | 16 | 328 | 1.6 | 9.7 | 0.00 | 0.00 | 0.00 | 35 | 1017.1 |
| 20260503213326 | 16 | 131 | 0.0 | 8.0 | 0.00 | 0.00 | 0.00 | 33 | 1017.1 |
| 20260503213037 | 16 | 150 | 1.6 | 8.0 | 0.00 | 0.00 | 0.00 | 35 | 1015.0 |
| 20260503213011 | 16 | 153 | 1.6 | 8.0 | 0.00 | 0.00 | 0.00 | 36 | 1017.6 |
| 20260503212817 | 16 | 273 | 3.2 | 8.0 | 0.00 | 0.00 | 0.00 | 36 | 1017.2 |
| 20260503212318 | 16 | 88 | 1.6 | 9.7 | 0.00 | 0.00 | 0.00 | 33 | 1017.2 |
| 20260503211855 | 16 | 189 | 3.2 | 9.7 | 0.00 | 0.00 | 0.00 | 36 | 1017.1 |
| 20260503211537 | 16 | 0 | 4.8 | 17.7 | 0.00 | 0.00 | 0.00 | 33 | 1014.8 |
| 20260503211535 | 16 | 179 | 4.8 | 16.1 | 0.00 | 0.00 | 0.00 | 34 | 1017.6 |
| 20260503211317 | 16 | 104 | 4.8 | 16.1 | 0.00 | 0.00 | 0.00 | 34 | 1017.1 |
| 20260503210826 | 16 | 148 | 6.4 | 16.1 | 0.00 | 0.00 | 0.00 | 32 | 1017.1 |
| 20260503210334 | 16 | 143 | 3.2 | 9.7 | 0.00 | 0.00 | 0.00 | 32 | 1017.2 |
| 20260503210052 | 16 | 360 | 3.2 | 9.7 | 0.00 | 0.00 | 0.00 | 32 | 1017.6 |
| 20260503210036 | 16 | 360 | 3.2 | 9.7 | 0.00 | 0.00 | 0.00 | 32 | 1015.0 |
| 20260503205821 | 16 | 193 | 4.8 | 9.7 | 0.00 | 0.00 | 0.00 | 34 | 1017.2 |
| 20260503205309 | 16 | 161 | 4.8 | 9.7 | 0.00 | 0.00 | 0.00 | 32 | 1017.2 |
| 20260503204820 | 16 | 269 | 4.8 | 12.9 | 0.00 | 0.00 | 0.00 | 33 | 1017.4 |
| 20260503204544 | 16 | 192 | 3.2 | 12.9 | 0.00 | 0.00 | 0.00 | 33 | 1017.9 |
| 20260503204539 | 16 | 207 | 3.2 | 12.9 | 0.00 | 0.00 | 0.00 | 32 | 1015.2 |
| 20260503204351 | 17 | 158 | 4.8 | 12.9 | 0.00 | 0.00 | 0.00 | 32 | 1017.4 |
| 20260503203814 | 17 | 300 | 3.2 | 12.9 | 0.00 | 0.00 | 0.00 | 32 | 1017.4 |
| 20260503203323 | 17 | 26 | 4.8 | 8.0 | 0.00 | 0.00 | 0.00 | 33 | 1017.4 |
| 20260503203100 | 17 | 227 | 4.8 | 8.0 | 0.00 | 0.00 | 0.00 | 32 | 1017.8 |
| 20260503203037 | 17 | 261 | 3.2 | 9.7 | 0.00 | 0.00 | 0.00 | 31 | 1015.2 |
| 20260503202832 | 17 | 348 | 3.2 | 9.7 | 0.00 | 0.00 | 0.00 | 31 | 1017.5 |
| 20260503202319 | 17 | 167 | 3.2 | 6.4 | 0.00 | 0.00 | 0.00 | 32 | 1017.6 |
| 20260503201809 | 17 | 15 | 0.0 | 6.4 | 0.00 | 0.00 | 0.00 | 35 | 1017.6 |
| 20260503201538 | 17 | 17 | 1.6 | 4.8 | 0.00 | 0.00 | 0.00 | 32 | 1015.5 |
| 20260503201515 | 17 | 10 | 1.6 | 4.8 | 0.00 | 0.00 | 0.00 | 32 | 1018.2 |
| 20260503201319 | 17 | 156 | 1.6 | 4.8 | 0.00 | 0.00 | 0.00 | 34 | 1017.8 |
| 20260503200821 | 17 | 115 | 1.6 | 16.1 | 0.00 | 0.00 | 0.00 | 33 | 1017.8 |
| 20260503200309 | 17 | 219 | 4.8 | 16.1 | 0.00 | 0.00 | 0.00 | 32 | 1018.0 |
| 20260503200038 | 17 | 207 | 3.2 | 17.7 | 0.00 | 0.00 | 0.00 | 30 | 1015.8 |
| 20260503195815 | 17 | 170 | 3.2 | 17.7 | 0.00 | 0.00 | 0.00 | 31 | 1018.2 |
| 20260503195323 | 18 | 205 | 9.7 | 17.7 | 0.00 | 0.00 | 0.00 | 31 | 1018.4 |
| 20260503194832 | 18 | 164 | 3.2 | 9.7 | 0.00 | 0.00 | 0.00 | 33 | 1018.4 |
| 20260503194538 | 17 | 0 | 1.6 | 11.3 | 0.00 | 0.00 | 0.00 | 36 | 1016.2 |
| 20260503194313 | 17 | 355 | 1.6 | 9.7 | 0.00 | 0.00 | 0.00 | 33 | 1018.6 |
| 20260503193847 | 17 | 207 | 4.8 | 9.7 | 0.00 | 0.00 | 0.00 | 33 | 1018.7 |
| 20260503193335 | 17 | 272 | 1.6 | 11.3 | 0.00 | 0.00 | 0.00 | 37 | 1018.7 |
| 20260503193042 | 17 | 164 | 3.2 | 11.3 | 0.00 | 0.00 | 0.00 | 33 | 1016.4 |
| 20260503193031 | 17 | 149 | 3.2 | 11.3 | 0.00 | 0.00 | 0.00 | 33 | 1019.2 |
| 20260503192816 | 17 | 164 | 4.8 | 11.3 | 0.00 | 0.00 | 0.00 | 32 | 1018.8 |
| 20260503192325 | 17 | 235 | 3.2 | 22.5 | 0.00 | 0.00 | 0.00 | 34 | 1018.8 |
| 20260503191816 | 17 | 228 | 11.3 | 22.5 | 0.00 | 0.00 | 0.00 | 37 | 1018.8 |
| 20260503191534 | 17 | 125 | 3.2 | 20.9 | 0.00 | 0.00 | 0.00 | 31 | 1016.7 |
| 20260503191520 | 17 | 126 | 4.8 | 11.3 | 0.00 | 0.00 | 0.00 | 31 | 1019.5 |
| 20260503191325 | 17 | 134 | 4.8 | 20.9 | 0.00 | 0.00 | 0.00 | 32 | 1019.1 |
| 20260503190833 | 17 | 293 | 4.8 | 20.9 | 0.00 | 0.00 | 0.00 | 34 | 1019.4 |
| 20260503190315 | 17 | 40 | 3.2 | 14.5 | 0.00 | 0.00 | 0.00 | 31 | 1019.4 |
| 20260503190041 | 17 | 54 | 3.2 | 14.5 | 0.00 | 0.00 | 0.00 | 31 | 1017.0 |
| 20260503190013 | 17 | 341 | 3.2 | 14.5 | 0.00 | 0.00 | 0.00 | 31 | 1019.9 |
| 20260503185844 | 17 | 180 | 3.2 | 14.5 | 0.00 | 0.00 | 0.00 | 32 | 1019.4 |
| 20260503185314 | 17 | 307 | 3.2 | 8.0 | 0.00 | 0.00 | 0.00 | 36 | 1019.4 |
| 20260503184841 | 17 | 186 | 3.2 | 9.7 | 0.00 | 0.00 | 0.00 | 37 | 1019.6 |
| 20260503184537 | 17 | 210 | 1.6 | 14.5 | 0.00 | 0.00 | 0.00 | 32 | 1017.4 |
| 20260503184501 | 17 | 224 | 1.6 | 12.9 | 0.00 | 0.00 | 0.00 | 32 | 1020.1 |
| 20260503184329 | 17 | 143 | 3.2 | 12.9 | 0.00 | 0.00 | 0.00 | 33 | 1019.8 |
| 20260503183818 | 17 | 234 | 3.2 | 14.5 | 0.00 | 0.00 | 0.00 | 33 | 1019.9 |
| 20260503183326 | 17 | 360 | 1.6 | 12.9 | 0.00 | 0.00 | 0.00 | 33 | 1019.9 |
| 20260503183053 | 16 | 223 | 6.4 | 12.9 | 0.00 | 0.00 | 0.00 | 33 | 1017.4 |
| 20260503183038 | 16 | 228 | 6.4 | 12.9 | 0.00 | 0.00 | 0.00 | 34 | 1020.3 |
| 20260503182810 | 17 | 162 | 4.8 | 9.7 | 0.00 | 0.00 | 0.00 | 35 | 1019.9 |
| 20260503182320 | 17 | 184 | 3.2 | 9.7 | 0.00 | 0.00 | 0.00 | 36 | 1019.9 |
| 20260503181854 | 16 | 312 | 3.2 | 9.7 | 0.00 | 0.00 | 0.00 | 34 | 1020.1 |
| 20260503181559 | 16 | 37 | 4.8 | 9.7 | 0.00 | 0.00 | 0.00 | 33 | 1020.6 |
| 20260503181540 | 16 | 298 | 3.2 | 9.7 | 0.00 | 0.00 | 0.00 | 34 | 1017.8 |
| 20260503181344 | 17 | 165 | 4.8 | 9.7 | 0.00 | 0.00 | 0.00 | 35 | 1020.1 |
| 20260503180826 | 17 | 153 | 4.8 | 9.7 | 0.00 | 0.00 | 0.00 | 34 | 1020.1 |
| 20260503180314 | 16 | 187 | 4.8 | 14.5 | 0.00 | 0.00 | 0.00 | 33 | 1020.1 |
| 20260503180038 | 16 | 175 | 4.8 | 14.5 | 0.00 | 0.00 | 0.00 | 34 | 1017.8 |
| 20260503180015 | 16 | 309 | 4.8 | 14.5 | 0.00 | 0.00 | 0.00 | 36 | 1020.7 |
| 20260503175826 | 16 | 301 | 4.8 | 14.5 | 0.00 | 0.00 | 0.00 | 41 | 1020.2 |
| 20260503175335 | 16 | 209 | 3.2 | 8.0 | 0.00 | 0.00 | 0.00 | 34 | 1020.3 |
| 20260503174824 | 16 | 174 | 1.6 | 6.4 | 0.00 | 0.00 | 0.00 | 37 | 1020.2 |
| 20260503174538 | 16 | 0 | 0.0 | 9.7 | 0.00 | 0.00 | 0.00 | 36 | 1017.9 |
| 20260503174528 | 16 | 51 | 0.0 | 6.4 | 0.00 | 0.00 | 0.00 | 37 | 1020.7 |
| 20260503174334 | 16 | 22 | 1.6 | 6.4 | 0.00 | 0.00 | 0.00 | 34 | 1020.2 |
| 20260503173822 | 16 | 349 | 1.6 | 9.7 | 0.00 | 0.00 | 0.00 | 37 | 1020.2 |
| 20260503173331 | 16 | 346 | 3.2 | 6.4 | 0.00 | 0.00 | 0.00 | 39 | 1020.3 |
| 20260503173050 | 16 | 15 | 0.0 | 8.0 | 0.00 | 0.00 | 0.00 | 40 | 1021.0 |
| 20260503173039 | 16 | 175 | 0.0 | 8.0 | 0.00 | 0.00 | 0.00 | 39 | 1018.1 |
| 20260503172815 | 16 | 171 | 1.6 | 8.0 | 0.00 | 0.00 | 0.00 | 35 | 1020.4 |
| 20260503172326 | 16 | 17 | 4.8 | 8.0 | 0.00 | 0.00 | 0.00 | 36 | 1020.5 |
| 20260503171811 | 16 | 342 | 1.6 | 12.9 | 0.00 | 0.00 | 0.00 | 39 | 1020.5 |
| 20260503171550 | 16 | 350 | 4.8 | 12.9 | 0.00 | 0.00 | 0.00 | 35 | 1021.1 |
| 20260503171539 | 16 | 328 | 4.8 | 12.9 | 0.00 | 0.00 | 0.00 | 33 | 1018.3 |
| 20260503171321 | 16 | 27 | 6.4 | 12.9 | 0.00 | 0.00 | 0.00 | 33 | 1020.6 |
| 20260503170812 | 16 | 55 | 4.8 | 11.3 | 0.00 | 0.00 | 0.00 | 36 | 1020.7 |
| 20260503170321 | 17 | 142 | 4.8 | 11.3 | 0.00 | 0.00 | 0.00 | 34 | 1020.7 |
| 20260503150841 | 14 | 252 | 6.4 | 14.5 | 0.00 | 0.00 | 0.00 | 44 | 1022.0 |
| 20260503150330 | 13 | 192 | 1.6 | 9.7 | 0.00 | 0.00 | 0.00 | 44 | 1021.9 |
| 20260503140313 | 12 | 182 | 3.2 | 8.0 | 0.00 | 0.00 | 0.00 | 54 | 1022.2 |
| 20260503131324 | 8 | 159 | 3.2 | 6.4 | 0.00 | 0.00 | 0.00 | 84 | 1022.2 |
| 20260503130832 | 7 | 309 | 3.2 | 8.0 | 0.00 | 0.00 | 0.00 | 86 | 1022.1 |
| 20260503130313 | 7 | 161 | 4.8 | 8.0 | 0.00 | 0.00 | 0.00 | 89 | 1022.1 |
| 20260503110816 | -1 | 233 | 1.6 | 3.2 | 0.00 | 0.00 | 0.00 | 86 | 1021.2 |
| 20260503110324 | -1 | 242 | 0.0 | 1.6 | 0.00 | 0.00 | 0.00 | 86 | 1021.2 |